Location: Namasale
(1.5000°N, 32.6167°E)
Time: 18:51:00
(UTC+00:00)

Vanguard 1 Rocket - Pass Details

Date: 22 April 2021
Orbit: 652 x 4224 km, 34.3° (Epoch: 09 May)

Event Time Altitude Azimuth Distance (km) Brightness Sun altitude
Rises 04:58:00 0° 226° (SW) 8,437 11.8 17.4°
Reaches altitude 10° 05:04:33 10° 222° (SW) 7,229 11.6 19.0°
Maximum altitude 05:26:51 55° 149° (SSE) 3,238 10.7 24.4°
Drops below altitude 10° 05:38:58 10° 74° (ENE) 4,221 12.6 27.4°
Sets 05:41:38 0° 69° (ENE) 4,864 12.4 28.0°
